Location: *
(41.7492°S, 135.4150°W)
Time: 04:02:44
(UTC+00:00)

TIGRISAT - Pass Details

Date: 30 June 2022
Orbit: 603 x 686 km, 97.7° (Epoch: 08 August)

Event Time Altitude Azimuth Distance (km) Brightness Sun altitude
Rises 02:04:32 0° 31° (NNE) 2,941 ? -4.7°
Reaches altitude 10° 02:06:46 10° 37° (NE) 2,054 ? -5.1°
Maximum altitude 02:11:02 44° 108° (ESE) 919 ? -5.8°
Drops below altitude 10° 02:15:28 10° 180° (S) 2,129 ? -6.6°
Sets 02:17:49 0° 185° (S) 3,063 ? -6.9°
